Norbank — PGIS — position and weather

sailwx.info

Track history (hours):
 
Tides and Currents Weather Stations Pressure Air Temp Water Temp Dewpoint Dewpoint Depression Visibility Wind Speed Wind Dir Waves Ship Positions

Norbank

Operator: P & O Ferries

Last reported at 2014-Oct-26 01:33 UTC. Time now 2014-Oct-26 01:55 UTC.
Position N 53°32' W 003°09'.

Length 167 m; draft 5.6 m.

Type: Ship (hazmat cat A). MMSI: 246213000.

Date/timePositionNaut miles runAvg speedWind from/ knotsBaromVisibWave heightAir tempDewpointWater temp
2014-Oct-26 01:33N 53°32' W 003°09'6 6.5
2014-Oct-26 00:33N 53°27' W 003°01'0 0.0
2014-Oct-25 23:21N 53°27' W 003°01'0 0.0
2014-Oct-25 22:33N 53°27' W 003°01'0 0.0
2014-Oct-25 21:33N 53°27' W 003°01'0 0.0
2014-Oct-25 20:33N 53°27' W 003°01'2 2.1
2014-Oct-25 19:34N 53°28' W 003°04'1616.1
2014-Oct-25 18:33N 53°31' W 003°31'9 0.7
2014-Oct-25 05:16N 53°33' W 003°47'1520.7
2014-Oct-25 04:34N 53°33' W 003°22'1413.6
2014-Oct-25 03:33N 53°27' W 003°01'0 0.4
2014-Oct-25 02:33N 53°27' W 003°01'0 0.0
2014-Oct-25 01:32N 53°27' W 003°01'0 0.0
2014-Oct-25 00:32N 53°27' W 003°01'0 0.4
2014-Oct-24 23:33N 53°27' W 003°01'1 1.2
2014-Oct-24 22:33N 53°26' W 003°01'8 8.0
2014-Oct-24 21:33N 53°32' W 003°10'1716.4
2014-Oct-24 20:31N 53°31' W 003°39'3 0.2
2014-Oct-24 05:33N 53°33' W 003°42'1919.2
2014-Oct-24 04:33N 53°32' W 003°10'7 7.1
2014-Oct-24 03:33N 53°27' W 003°01'0 0.4
2014-Oct-24 02:30N 53°27' W 003°01'0 0.0
2014-Oct-24 01:30N 53°27' W 003°01'0 0.0
2014-Oct-24 00:29N 53°27' W 003°01'0 0.0
2014-Oct-23 23:29N 53°27' W 003°01'0 0.5
2014-Oct-23 22:33N 53°27' W 003°01'9 9.0
2014-Oct-23 21:33N 53°31' W 003°14'1717.1
2014-Oct-23 20:33N 53°31' W 003°43'1716.8
2014-Oct-23 19:31N 53°35' W 004°12'5 0.4
2014-Oct-23 06:30N 53°34' W 004°04'1819.5
2014-Oct-23 05:33N 53°33' W 003°33'1716.9
2014-Oct-23 04:34N 53°30' W 003°05'4 3.7
2014-Oct-23 03:33N 53°27' W 003°01'0 0.4
2014-Oct-23 02:31N 53°27' W 003°01'0 0.0
2014-Oct-23 01:30N 53°27' W 003°01'0 0.0
2014-Oct-23 00:30N 53°27' W 003°01'0 0.0
2014-Oct-22 23:29N 53°27' W 003°01'0 0.5
2014-Oct-22 22:33N 53°27' W 003°01'1010.4
2014-Oct-22 21:33N 53°31' W 003°17'1717.4
2014-Oct-22 20:33N 53°32' W 003°46'1615.8
2014-Oct-22 19:32N 53°35' W 004°13'2 0.2
2014-Oct-22 08:04N 53°33' W 004°11'918.7
2014-Oct-22 07:33N 53°33' W 003°55'1918.8
2014-Oct-22 06:34N 53°33' W 003°23'1414.1
2014-Oct-22 05:33N 53°27' W 003°02'1 0.6
2014-Oct-22 04:33N 53°27' W 003°01'0 0.0
2014-Oct-22 03:32N 53°27' W 003°01'0 0.0
2014-Oct-22 02:26N 53°27' W 003°01'0 0.2
2014-Oct-22 01:33N 53°27' W 003°01'2 1.7
2014-Oct-22 00:33N 53°28' W 003°04'1515.3
2014-Oct-21 23:33N 53°31' W 003°29'1919.5
2014-Oct-21 22:33N 53°33' W 004°02'4 0.2
2014-Oct-20 23:27N 53°34' W 003°56'1820.3
2014-Oct-20 22:34N 53°33' W 003°25'1612.3
2014-Oct-20 21:17N 53°27' W 003°01'0 0.5
2014-Oct-20 20:18N 53°27' W 003°01'0 0.0
2014-Oct-20 19:30N 53°27' W 003°01'0 0.0
2014-Oct-20 18:23N 53°27' W 003°01'0 0.0
2014-Oct-20 17:23N 53°27' W 003°01'0 0.0
2014-Oct-20 16:16N 53°27' W 003°01'0 0.0
2014-Oct-20 15:22N 53°27' W 003°01'0 0.0
2014-Oct-20 14:09N 53°27' W 003°01'0 0.0
2014-Oct-20 13:33N 53°27' W 003°01'0 0.0
2014-Oct-20 08:19N 53°27' W 003°01'0 0.0
2014-Oct-20 07:06N 53°27' W 003°01'0 0.0
2014-Oct-20 06:06N 53°27' W 003°01'0 0.0
2014-Oct-20 05:33N 53°27' W 003°01'0 0.2
2014-Oct-20 04:33N 53°27' W 003°01'4 3.7
2014-Oct-20 03:32N 53°30' W 003°06'1514.9
2014-Oct-20 02:33N 53°31' W 003°30'1615.8
2014-Oct-20 01:33N 53°33' W 003°57'1 0.0
2014-Oct-18 23:15N 53°34' W 003°58'1218.0
2014-Oct-18 22:34N 53°33' W 003°37'1818.1
2014-Oct-18 21:33N 53°31' W 003°06'5 4.9
2014-Oct-18 20:33N 53°27' W 003°01'0 0.2
2014-Oct-18 19:29N 53°27' W 003°01'0 0.0
2014-Oct-18 17:16N 53°27' W 003°01'0 0.0
2014-Oct-18 16:15N 53°27' W 003°01'0 0.6
2014-Oct-18 15:28N 53°27' W 003°01'7 7.2
2014-Oct-18 14:33N 53°32' W 003°09'1919.2
2014-Oct-18 13:33N 53°31' W 003°41'2020.2
2014-Oct-18 12:33N 53°35' W 004°15'9 0.7
2014-Oct-17 23:27N 53°35' W 003°60'1819.6
2014-Oct-17 22:33N 53°34' W 003°30'1817.5
2014-Oct-17 21:34N 53°28' W 003°03'1 1.0
2014-Oct-17 20:28N 53°27' W 003°01'0 0.0
2014-Oct-17 19:28N 53°27' W 003°01'0 0.0
2014-Oct-17 18:27N 53°27' W 003°01'0 0.0
2014-Oct-17 17:33N 53°27' W 003°01'0 0.0
2014-Oct-17 16:27N 53°27' W 003°01'0 0.3
2014-Oct-17 15:33N 53°27' W 003°01'6 5.5
2014-Oct-17 14:33N 53°31' W 003°07'1918.9
2014-Oct-17 13:33N 53°31' W 003°39'2020.1
2014-Oct-17 12:33N 53°35' W 004°12'5 0.4
2014-Oct-16 23:07N 53°33' W 004°03'1119.4
2014-Oct-16 22:33N 53°33' W 003°45'1919.3
2014-Oct-16 21:33N 53°31' W 003°13'8 8.0
2014-Oct-16 20:32N 53°27' W 003°01'0 0.4
2014-Oct-16 19:23N 53°27' W 003°01'0 0.0
2014-Oct-16 18:29N 53°27' W 003°01'0 0.0
2014-Oct-16 17:22N 53°27' W 003°01'0 0.0
2014-Oct-16 16:22N 53°27' W 003°01'0 0.5
2014-Oct-16 15:32N 53°27' W 003°01'8 8.4
2014-Oct-16 14:33N 53°31' W 003°13'1919.2
2014-Oct-16 13:33N 53°32' W 003°45'2019.7
2014-Oct-16 12:33N 53°35' W 004°18'  
Track history (hours):
 
Tides and Currents Weather Stations Pressure Air Temp Water Temp Dewpoint Dewpoint Depression Visibility Wind Speed Wind Dir Waves Ship Positions

Norbank

Operator: P & O Ferries

Last reported at 2014-Oct-26 01:33 UTC. Time now 2014-Oct-26 01:55 UTC.
Position N 53°32' W 003°09'.

Length 167 m; draft 5.6 m.

Type: Ship (hazmat cat A). MMSI: 246213000.

Date/timePositionNaut miles runAvg speedWind from/ knotsBaromVisibWave heightAir tempDewpointWater temp
2014-Oct-26 01:33N 53°32' W 003°09'6 6.5
2014-Oct-26 00:33N 53°27' W 003°01'0 0.0
2014-Oct-25 23:21N 53°27' W 003°01'0 0.0
2014-Oct-25 22:33N 53°27' W 003°01'0 0.0
2014-Oct-25 21:33N 53°27' W 003°01'0 0.0
2014-Oct-25 20:33N 53°27' W 003°01'2 2.1
2014-Oct-25 19:34N 53°28' W 003°04'1616.1
2014-Oct-25 18:33N 53°31' W 003°31'9 0.7
2014-Oct-25 05:16N 53°33' W 003°47'1520.7
2014-Oct-25 04:34N 53°33' W 003°22'1413.6
2014-Oct-25 03:33N 53°27' W 003°01'0 0.4
2014-Oct-25 02:33N 53°27' W 003°01'0 0.0
2014-Oct-25 01:32N 53°27' W 003°01'0 0.0
2014-Oct-25 00:32N 53°27' W 003°01'0 0.4
2014-Oct-24 23:33N 53°27' W 003°01'1 1.2
2014-Oct-24 22:33N 53°26' W 003°01'8 8.0
2014-Oct-24 21:33N 53°32' W 003°10'1716.4
2014-Oct-24 20:31N 53°31' W 003°39'3 0.2
2014-Oct-24 05:33N 53°33' W 003°42'1919.2
2014-Oct-24 04:33N 53°32' W 003°10'7 7.1
2014-Oct-24 03:33N 53°27' W 003°01'0 0.4
2014-Oct-24 02:30N 53°27' W 003°01'0 0.0
2014-Oct-24 01:30N 53°27' W 003°01'0 0.0
2014-Oct-24 00:29N 53°27' W 003°01'0 0.0
2014-Oct-23 23:29N 53°27' W 003°01'0 0.5
2014-Oct-23 22:33N 53°27' W 003°01'9 9.0
2014-Oct-23 21:33N 53°31' W 003°14'1717.1
2014-Oct-23 20:33N 53°31' W 003°43'1716.8
2014-Oct-23 19:31N 53°35' W 004°12'5 0.4
2014-Oct-23 06:30N 53°34' W 004°04'1819.5
2014-Oct-23 05:33N 53°33' W 003°33'1716.9
2014-Oct-23 04:34N 53°30' W 003°05'4 3.7
2014-Oct-23 03:33N 53°27' W 003°01'0 0.4
2014-Oct-23 02:31N 53°27' W 003°01'0 0.0
2014-Oct-23 01:30N 53°27' W 003°01'0 0.0
2014-Oct-23 00:30N 53°27' W 003°01'0 0.0
2014-Oct-22 23:29N 53°27' W 003°01'0 0.5
2014-Oct-22 22:33N 53°27' W 003°01'1010.4
2014-Oct-22 21:33N 53°31' W 003°17'1717.4
2014-Oct-22 20:33N 53°32' W 003°46'1615.8
2014-Oct-22 19:32N 53°35' W 004°13'2 0.2
2014-Oct-22 08:04N 53°33' W 004°11'918.7
2014-Oct-22 07:33N 53°33' W 003°55'1918.8
2014-Oct-22 06:34N 53°33' W 003°23'1414.1
2014-Oct-22 05:33N 53°27' W 003°02'1 0.6
2014-Oct-22 04:33N 53°27' W 003°01'0 0.0
2014-Oct-22 03:32N 53°27' W 003°01'0 0.0
2014-Oct-22 02:26N 53°27' W 003°01'0 0.2
2014-Oct-22 01:33N 53°27' W 003°01'2 1.7
2014-Oct-22 00:33N 53°28' W 003°04'1515.3
2014-Oct-21 23:33N 53°31' W 003°29'1919.5
2014-Oct-21 22:33N 53°33' W 004°02'4 0.2
2014-Oct-20 23:27N 53°34' W 003°56'1820.3
2014-Oct-20 22:34N 53°33' W 003°25'1612.3
2014-Oct-20 21:17N 53°27' W 003°01'0 0.5
2014-Oct-20 20:18N 53°27' W 003°01'0 0.0
2014-Oct-20 19:30N 53°27' W 003°01'0 0.0
2014-Oct-20 18:23N 53°27' W 003°01'0 0.0
2014-Oct-20 17:23N 53°27' W 003°01'0 0.0
2014-Oct-20 16:16N 53°27' W 003°01'0 0.0
2014-Oct-20 15:22N 53°27' W 003°01'0 0.0
2014-Oct-20 14:09N 53°27' W 003°01'0 0.0
2014-Oct-20 13:33N 53°27' W 003°01'0 0.0
2014-Oct-20 08:19N 53°27' W 003°01'0 0.0
2014-Oct-20 07:06N 53°27' W 003°01'0 0.0
2014-Oct-20 06:06N 53°27' W 003°01'0 0.0
2014-Oct-20 05:33N 53°27' W 003°01'0 0.2
2014-Oct-20 04:33N 53°27' W 003°01'4 3.7
2014-Oct-20 03:32N 53°30' W 003°06'1514.9
2014-Oct-20 02:33N 53°31' W 003°30'1615.8
2014-Oct-20 01:33N 53°33' W 003°57'1 0.0
2014-Oct-18 23:15N 53°34' W 003°58'1218.0
2014-Oct-18 22:34N 53°33' W 003°37'1818.1
2014-Oct-18 21:33N 53°31' W 003°06'5 4.9
2014-Oct-18 20:33N 53°27' W 003°01'0 0.2
2014-Oct-18 19:29N 53°27' W 003°01'0 0.0
2014-Oct-18 17:16N 53°27' W 003°01'0 0.0
2014-Oct-18 16:15N 53°27' W 003°01'0 0.6
2014-Oct-18 15:28N 53°27' W 003°01'7 7.2
2014-Oct-18 14:33N 53°32' W 003°09'1919.2
2014-Oct-18 13:33N 53°31' W 003°41'2020.2
2014-Oct-18 12:33N 53°35' W 004°15'9 0.7
2014-Oct-17 23:27N 53°35' W 003°60'1819.6
2014-Oct-17 22:33N 53°34' W 003°30'1817.5
2014-Oct-17 21:34N 53°28' W 003°03'1 1.0
2014-Oct-17 20:28N 53°27' W 003°01'0 0.0
2014-Oct-17 19:28N 53°27' W 003°01'0 0.0
2014-Oct-17 18:27N 53°27' W 003°01'0 0.0
2014-Oct-17 17:33N 53°27' W 003°01'0 0.0
2014-Oct-17 16:27N 53°27' W 003°01'0 0.3
2014-Oct-17 15:33N 53°27' W 003°01'6 5.5
2014-Oct-17 14:33N 53°31' W 003°07'1918.9
2014-Oct-17 13:33N 53°31' W 003°39'2020.1
2014-Oct-17 12:33N 53°35' W 004°12'5 0.4
2014-Oct-16 23:07N 53°33' W 004°03'1119.4
2014-Oct-16 22:33N 53°33' W 003°45'1919.3
2014-Oct-16 21:33N 53°31' W 003°13'8 8.0
2014-Oct-16 20:32N 53°27' W 003°01'0 0.4
2014-Oct-16 19:23N 53°27' W 003°01'0 0.0
2014-Oct-16 18:29N 53°27' W 003°01'0 0.0
2014-Oct-16 17:22N 53°27' W 003°01'0 0.0
2014-Oct-16 16:22N 53°27' W 003°01'0 0.5
2014-Oct-16 15:32N 53°27' W 003°01'8 8.4
2014-Oct-16 14:33N 53°31' W 003°13'1919.2
2014-Oct-16 13:33N 53°32' W 003°45'2019.7
2014-Oct-16 12:33N 53°35' W 004°18'  

Dump ship's entire track history